Retour au catalogue

STARLINK-37172

ActifCommunicationsSSO
NORAD 68395·PAYLOAD·🇺🇸 United States

Lancé Mar 26, 2026 depuis Vandenberg Space Force Base

Loading…

Prochains Passages (prochaines 24 heures)

TLE

FraisSource: CelesTrak SupGP

Époque: Sep 14, 2026, 22:47 UTC

1 68395C 26063R   26257.94979167 -.00019612  00000+0 -60874-3 0  2577
2 68395  97.2863  38.8408 0001021  92.0809 310.9803 15.33452804    11

Suivez STARLINK-37172 en temps réel avec AllMySat

Download on the App Store